Location: La Comballaz
(46.3780°N, 7.0817°E)
Time: 10:08:54
(UTC+00:00)

AO-85 - Visible Passes

Search period start: 26 November 2022 00:00
Search period end: 06 December 2022 00:00
Orbit: 513 x 757 km, 64.8° (Epoch: 24 November)

Date Brightness Start Highest point End Pass type
(mag) Time Alt. Az. Time Alt. Az. Time Alt. Az.
26 Nov ? 17:52:08 10° WSW 17:56:22 33° NW 17:58:41 20° N visible
27 Nov ? 16:33:37 10° SSW 16:38:25 83° ESE 16:42:52 10° NE visible
27 Nov ? 18:15:48 10° W 18:19:08 19° NW 18:20:40 17° N visible
28 Nov ? 16:56:18 10° WSW 17:00:53 49° NW 17:05:09 10° NNE visible
28 Nov ? 18:40:13 10° NW 18:42:04 12° NNW 18:42:37 12° NNW visible
29 Nov ? 17:19:35 10° W 17:23:31 26° NW 17:27:04 11° NNE visible
30 Nov ? 17:43:30 10° WNW 17:46:20 16° NNW 17:48:55 11° N visible
01 Dec ? 16:23:36 10° WSW 16:27:58 38° NW 16:32:04 10° NNE visible
01 Dec ? 18:08:35 10° NW 18:09:21 10° NNW 18:10:05 10° NNW visible
02 Dec ? 16:47:06 10° W 16:50:40 22° NW 16:54:03 10° NNE visible
03 Dec ? 17:11:19 10° WNW 17:13:33 13° NNW 17:15:43 10° N visible
05 Dec ? 16:14:43 10° WNW 16:17:49 18° NW 16:20:48 10° N visible
